[[{"header":{"parameterUnit":"m.s-1","parameterCategory":2,"la1":30.2991,"la2":30.254,"lo1":-89.0895,"lo2":-89.0444,"dy":0.0017,"dx":0.0017,"nx":28,"ny":28,"refTime":"2024-11-26T09:00:00:Z","depth":"0","parameterNumber":2,"parameterNumberName":"U-component_of_CURRENTS"},"data":[0,0,0,0,0,0,0,0,0,0,0,0,0,0,0,0,0,0,0,0,0,0,0,0,0,0,0,0,0,0,0,0,0,0,0,0,0,0,0,0,0,0,0,0,0,0,0,0,0,0,0,0,0,0,0,0,0,0,0.4771,0.4772,0,0.4848,0.4849,0.4849,0.4806,0.4805,0.4803,0.4802,0.4799,0.4801,0.4802,0,0,0,0,0,0,0,0,0,0,0,0,0,0.4564,0.4567,0.4771,0.4772,0.4774,0.4848,0.4849,0.4849,0.4807,0.4805,0.4803,0.4801,0.4799,0.48,0.4802,0,0,0,0,0,0,0,0,0,0,0,0,0,0.4643,0.4568,0.477,0.4766,0.4767,0.4848,0.4849,0.4849,0.4807,0.4805,0.4802,0.48,0.4798,0.48,0.4802,0.4862,0,0,0.4809,0.481,0,0,0,0,0,0,0,0,0.4638,0.465,0.4765,0.4767,0.4768,0.4821,0.4775,0.4852,0.4808,0.4785,0.4802,0.4799,0.4805,0.4806,0.4818,0.4862,0.4861,0.4809,0.481,0.4811,0.4812,0,0,0,0,0,0,0,0.4633,0.4646,0.4795,0.4767,0.4769,0.4754,0.4762,0.4789,0.4801,0.4787,0.4786,0.4805,0.4804,0.4816,0.4818,0.4861,0.4809,0.4811,0.4812,0.4813,0.4945,0.4947,0,0,0,0,0,0,0.4641,0.4642,0.4793,0.4798,0.4703,0.476,0.4768,0.4801,0.4802,0.4803,0.4807,0.4803,0.4814,0.4815,0.4817,0.488,0.4811,0.4813,0.4814,0.4943,0.4945,0.4948,0,0,0,0,0,0,0.4636,0.4654,0.479,0.4725,0.4742,0.4767,0.4803,0.4804,0.481,0.482,0.4816,0.4812,0.4812,0.4815,0.4839,0.4879,0.4814,0.4816,0.494,0.4944,0.4947,0.501,0,0,0,0,0,0,0.463,0.4652,0.4679,0.4727,0.4746,0.4824,0.4806,0.4807,0.4829,0.4824,0.4823,0.4821,0.4811,0.4836,0.4841,0.4881,0.4817,0.4937,0.4942,0.4946,0.5005,0.5015,0.5024,0,0,0,0,0,0.4623,0.466,0.468,0.4698,0.4782,0.4826,0.4833,0.4837,0.4832,0.4833,0.484,0.482,0.4866,0.4839,0.4844,0.4886,0.4935,0.494,0.4945,0.5001,0.5013,0.5024,0,0,0,0,0,0,0.4583,0.4662,0.4683,0.4744,0.478,0.482,0.4832,0.4846,0.4857,0.4851,0.4847,0.4846,0.4883,0.4883,0.4853,0.4939,0.49,0.4906,0.4941,0.4952,0.4961,0.4941,0.4819,0,0,0,0,0,0.4594,0.4635,0.4704,0.4746,0.4769,0.4805,0.4826,0.4836,0.4858,0.486,0.4862,0.4879,0.4915,0.4927,0.4944,0.4995,0.4997,0.5028,0.5038,0.5045,0.5035,0.5092,0.5106,0.4965,0.4965,0.4965,0,0,0.4586,0.4639,0.4659,0.4739,0.4766,0.4802,0.4808,0.4842,0.4867,0.4862,0.4882,0.4907,0.4935,0.4984,0.5002,0.4984,0.5089,0.5052,0.5058,0.5043,0.5099,0.5113,0.5125,0.4968,0.4968,0.4967,0,0,0.4583,0.4642,0.4671,0.4707,0.4767,0.4799,0.4811,0.4858,0.4869,0.4917,0.4923,0.4971,0.5011,0.5043,0.5069,0.5147,0.5134,0.5159,0.5194,0.5252,0.5263,0.5273,0.5298,0.531,0.5168,0.5168,0.5168,0,0.4567,0.4629,0.468,0.4717,0.4748,0.4797,0.4826,0.4861,0.4905,0.4931,0.4922,0.5021,0.5044,0.5125,0.5154,0.5167,0.5182,0.5147,0.5263,0.5273,0.5282,0.5305,0.5317,0.5172,0.5171,0.5171,0.5171,0,0.4581,0.4635,0.4651,0.4719,0.4755,0.4788,0.4852,0.4884,0.4919,0.4962,0.5038,0.5084,0.5137,0.5176,0.5191,0.5282,0.5265,0.5264,0.5228,0.53,0.532,0.5331,0.5177,0.5176,0.5175,0.5174,0,0,0.4528,0.464,0.4644,0.4676,0.4761,0.4787,0.4847,0.492,0.495,0.5023,0.5073,0.5176,0.5202,0.5232,0.5269,0.5333,0.5427,0.5329,0.5331,0.5343,0.5534,0.5421,0.5422,0.5448,0.545,0.5452,0.5523,0,0.4519,0.4587,0.4646,0.4695,0.4736,0.4802,0.4845,0.4917,0.4976,0.5032,0.513,0.5186,0.5225,0.5255,0.5332,0.5416,0.5459,0.5406,0.5472,0.5473,0.5355,0.5433,0.5221,0.5258,0.5534,0.5536,0.5537,0,0.4507,0.4564,0.4616,0.4698,0.4716,0.4744,0.4817,0.4864,0.4973,0.502,0.5113,0.5174,0.5309,0.5303,0.548,0.5446,0.548,0.5532,0.5536,0.5409,0.5381,0.5232,0.5268,0.51,0.5554,0.5553,0.5552,0,0.4442,0.4534,0.4573,0.4601,0.4703,0.4722,0.4765,0.4858,0.4895,0.5006,0.5048,0.5201,0.5274,0.5386,0.5523,0.5502,0.5688,0.5669,0.5586,0.5577,0.5395,0.5366,0.5261,0.5736,0.5735,0.5735,0.5735,0,0.4417,0.4442,0.454,0.4561,0.4592,0.4667,0.4694,0.476,0.4843,0.4889,0.5024,0.5089,0.5298,0.5434,0.5532,0.5616,0.5701,0.5593,0.5595,0.5411,0.5384,0.5226,0.519,0.5738,0.5737,0.5737,0.5736,0,0.4342,0.4411,0.4455,0.4546,0.4567,0.4579,0.4642,0.4663,0.475,0.4812,0.485,0.5038,0.521,0.5395,0.5585,0.5603,0.5548,0.569,0.5448,0.5418,0.5129,0.5106,0.4893,0.4762,0.5592,0.5589,0.5587,0,0.4312,0.4334,0.4419,0.4435,0.4469,0.4501,0.4522,0.4607,0.4629,0.4776,0.4801,0.498,0.5077,0.5325,0.5426,0.5553,0.5436,0.538,0.5284,0.508,0.5058,0.4915,0.4812,0.5081,0.5075,0.507,0.5066,0,0.4262,0.4287,0.4331,0.4362,0.4381,0.4387,0.4418,0.442,0.452,0.4579,0.4664,0.475,0.4958,0.5004,0.5162,0.522,0.5108,0.5276,0.5141,0.4703,0.4467,0.4352,0.506,0.5023,0.5027,0.503,0.5033,0.5034,0.4215,0.4218,0.4269,0.4277,0.4291,0.4248,0.4198,0.424,0.4251,0.4278,0.4464,0.4485,0.4633,0.4814,0.4864,0.4723,0.4767,0.458,0.4591,0.4479,0.4266,0.4856,0.4771,0.4774,0.4776,0.4779,0.478,0,0.415,0.416,0.4177,0.4165,0.4111,0.4147,0.4108,0.4022,0.3976,0.4051,0.41,0.4114,0.4137,0.4234,0.4216,0.4079,0.3946,0.3967,0.3722,0.3674,0.4259,0.4146,0.3827,0.3827,0.3827,0.3827,0.3827,0.3828,0.4126,0.4104,0.4099,0.399,0.3957,0.3815,0.3751,0.3659,0.3641,0.3536,0.3483,0.3548,0.3713,0.3803,0.3662,0.3587,0.3344,0.3189,0.3221,0.3638,0.3695,0.3749,0.363,0.3208,0.3208,0.2463,0.2458,0.2454]},{"header":{"parameterUnit":"m.s-1","parameterCategory":2,"la1":30.2991,"la2":30.254,"lo1":-89.0895,"lo2":-89.0444,"dy":0.0017,"dx":0.0017,"nx":28,"ny":28,"refTime":"2024-11-26T09:00:00:Z","depth":"0","parameterNumber":3,"parameterNumberName":"V-component_of_CURRENTS"},"data":[0,0,0,0,0,0,0,0,0,0,0,0,0,0,0,0,0,0,0,0,0,0,0,0,0,0,0,0,0,0,0,0,0,0,0,0,0,0,0,0,0,0,0,0,0,0,0,0,0,0,0,0,0,0,0,0,0,0,0.0907,0.0906,0,0.0826,0.0825,0.0823,0.0765,0.0765,0.0764,0.0764,0.0635,0.0632,0.0629,0,0,0,0,0,0,0,0,0,0,0,0,0,0.0926,0.0926,0.0907,0.0906,0.0905,0.0826,0.0825,0.0823,0.0765,0.0765,0.0764,0.0764,0.0636,0.0632,0.0629,0,0,0,0,0,0,0,0,0,0,0,0,0,0.0887,0.0926,0.0907,0.0868,0.0864,0.0826,0.0824,0.0823,0.0765,0.0765,0.0764,0.0764,0.0637,0.0633,0.0628,0.061,0,0,0.0614,0.0612,0,0,0,0,0,0,0,0,0.0889,0.0886,0.0875,0.0871,0.0866,0.0806,0.0784,0.075,0.0765,0.0801,0.0764,0.0763,0.0689,0.068,0.0665,0.0603,0.0598,0.0614,0.0611,0.0609,0.0607,0,0,0,0,0,0,0,0.0892,0.0889,0.0873,0.0874,0.0868,0.0825,0.0819,0.0777,0.0747,0.0798,0.0794,0.0787,0.0686,0.0669,0.0661,0.0596,0.0614,0.0609,0.0607,0.0605,0.056,0.0562,0,0,0,0,0,0,0.0911,0.0892,0.0876,0.0871,0.0878,0.0825,0.0819,0.0825,0.0748,0.0737,0.0788,0.0785,0.0678,0.0667,0.0656,0.0667,0.0609,0.0604,0.0602,0.0558,0.056,0.0562,0,0,0,0,0,0,0.0912,0.0911,0.0879,0.088,0.0873,0.0826,0.0832,0.0823,0.081,0.0741,0.0729,0.0785,0.0677,0.0663,0.0639,0.066,0.0602,0.0598,0.0557,0.0559,0.0561,0.0663,0,0,0,0,0,0,0.0913,0.0912,0.0923,0.0882,0.0874,0.087,0.0833,0.0822,0.0807,0.0803,0.0734,0.0722,0.0675,0.0647,0.0635,0.0652,0.0594,0.0554,0.0558,0.056,0.0658,0.0669,0.0678,0,0,0,0,0,0.0914,0.0933,0.0924,0.0922,0.0891,0.0871,0.0863,0.0825,0.0808,0.081,0.0773,0.0724,0.0658,0.0645,0.063,0.0646,0.0553,0.0557,0.056,0.0653,0.0667,0.0678,0,0,0,0,0,0,0.0956,0.0928,0.0917,0.093,0.0908,0.0862,0.0859,0.0835,0.0806,0.0801,0.0738,0.0723,0.0711,0.067,0.0657,0.0646,0.06,0.0601,0.0676,0.0688,0.0698,0.0757,0.059,0,0,0,0,0,0.0971,0.0972,0.0943,0.0955,0.0947,0.0905,0.0892,0.0869,0.0837,0.0823,0.0779,0.0739,0.0714,0.0695,0.066,0.0649,0.0621,0.0654,0.0664,0.0673,0.0713,0.0697,0.071,0.0574,0.0574,0.0574,0,0,0.0991,0.0976,0.0978,0.0962,0.094,0.0942,0.0896,0.0885,0.0894,0.0814,0.0812,0.0768,0.072,0.0713,0.0704,0.068,0.0691,0.0678,0.0685,0.0722,0.0702,0.0715,0.0727,0.0576,0.0576,0.0576,0,0,0.102,0.102,0.1023,0.1014,0.0989,0.0972,0.0975,0.0937,0.0929,0.0923,0.0874,0.0859,0.0804,0.0786,0.0768,0.0817,0.0745,0.0792,0.0888,0.0871,0.0882,0.0892,0.0846,0.0851,0.0797,0.0798,0.0798,0,0.1045,0.1047,0.1023,0.1026,0.1029,0.0993,0.1007,0.1,0.0962,0.0977,0.094,0.0908,0.0852,0.087,0.0886,0.0842,0.081,0.0841,0.0885,0.0894,0.0903,0.0854,0.0858,0.0803,0.0802,0.0802,0.0801,0,0.1064,0.1077,0.1082,0.108,0.1086,0.1091,0.1085,0.1096,0.1084,0.108,0.1097,0.1037,0.1025,0.0998,0.0955,0.099,0.0938,0.0897,0.0855,0.0923,0.0866,0.0868,0.0811,0.0809,0.0807,0.0806,0,0,0.1087,0.1094,0.1095,0.1109,0.1115,0.112,0.1165,0.1194,0.1237,0.1215,0.1269,0.123,0.1208,0.119,0.1128,0.1117,0.1121,0.1043,0.1039,0.1002,0.1064,0.099,0.0984,0.1081,0.1083,0.1085,0.0991,0,0.1105,0.1124,0.113,0.1171,0.1185,0.1201,0.125,0.1282,0.1304,0.1349,0.1333,0.1345,0.1277,0.1266,0.1255,0.1174,0.1138,0.115,0.1004,0.1,0.0929,0.0989,0.0924,0.0834,0.0993,0.0993,0.0993,0,0.1111,0.1125,0.1161,0.1221,0.1232,0.1262,0.1347,0.1385,0.1459,0.1482,0.1519,0.15,0.1516,0.1422,0.1351,0.1361,0.1229,0.1148,0.1141,0.1051,0.0933,0.0798,0.0831,0.062,0.0996,0.0996,0.0996,0,0.1112,0.1152,0.1183,0.1198,0.1259,0.1299,0.1341,0.1423,0.1483,0.1566,0.1621,0.1634,0.1639,0.1537,0.1403,0.1369,0.1303,0.1218,0.1019,0.1009,0.092,0.0901,0.0744,0.1135,0.1135,0.1135,0.1136,0,0.1124,0.115,0.1184,0.1201,0.1265,0.1309,0.1399,0.1456,0.1559,0.1663,0.168,0.1758,0.1669,0.1628,0.1466,0.1286,0.1345,0.1065,0.0999,0.0949,0.0935,0.0718,0.0618,0.1132,0.1132,0.1133,0.1134,0,0.112,0.1138,0.1178,0.1239,0.1262,0.1308,0.1421,0.1504,0.1593,0.1733,0.1768,0.1856,0.1822,0.1699,0.1539,0.1359,0.105,0.1077,0.102,0.0951,0.0552,0.0461,0.0273,0.0188,0.0846,0.0844,0.0842,0,0.1116,0.1132,0.1191,0.1225,0.1251,0.1324,0.1398,0.1503,0.161,0.1801,0.1883,0.1911,0.197,0.1736,0.1434,0.1149,0.0963,0.0854,0.0774,0.0551,0.0401,0.0343,0.0283,0.0674,0.0671,0.0668,0.0666,0,0.1118,0.1136,0.1176,0.1238,0.1302,0.1395,0.1508,0.1599,0.1765,0.1911,0.2097,0.2161,0.1946,0.1692,0.1302,0.1073,0.0699,0.0789,0.0583,0.0294,0.0199,0.0078,0.0693,0.0644,0.0647,0.0648,0.0649,0.065,0.1117,0.1144,0.1197,0.1262,0.1351,0.1484,0.1589,0.1754,0.1952,0.2221,0.225,0.2369,0.1924,0.1406,0.1097,0.0429,0.0486,0.021,0.0127,0.0095,-0.0001,0.0562,0.0427,0.0427,0.0428,0.0429,0.0429,0,0.1103,0.1152,0.1221,0.1321,0.1438,0.1484,0.1688,0.1842,0.2108,0.2316,0.2498,0.2274,0.1735,0.1157,0.0281,-0.0142,-0.0274,-0.0365,-0.0468,-0.049,0.0015,-0.0008,-0.0271,-0.0271,-0.0271,-0.0271,-0.0271,-0.027,0.1098,0.1151,0.1197,0.1374,0.1471,0.166,0.1795,0.2049,0.2235,0.2478,0.2506,0.251,0.1974,0.0509,-0.0473,-0.0684,-0.0944,-0.1032,-0.1107,-0.0792,-0.0744,-0.0699,-0.0745,-0.1159,-0.116,-0.1583,-0.1588,-0.1592]}],[{"header":{"parameterUnit":"m.s-1","parameterCategory":2,"la1":30.2991,"la2":30.254,"lo1":-89.0895,"lo2":-89.0444,"dy":0.0017,"dx":0.0017,"nx":28,"ny":28,"refTime":"2024-11-26T09:00:00:Z","depth":"2","parameterNumber":2,"parameterNumberName":"U-component_of_CURRENTS"},"data":[0,0,0,0,0,0,0,0,0,0,0,0,0,0,0,0,0,0,0,0,0,0,0,0,0,0,0,0,0,0,0,0,0,0,0,0,0,0,0,0,0,0,0,0,0,0,0,0,0,0,0,0,0,0,0,0,0,0,0.3428,0.343,0,0.349,0.349,0.349,0.3517,0.3518,0.3519,0.3519,0.369,0.3694,0.3698,0,0,0,0,0,0,0,0,0,0,0,0,0,0.3401,0.34,0.3428,0.343,0.3431,0.349,0.349,0.349,0.3517,0.3518,0.3519,0.3519,0.3689,0.3694,0.3698,0,0,0,0,0,0,0,0,0,0,0,0,0,0.3425,0.34,0.3428,0.3457,0.3461,0.349,0.349,0.349,0.3517,0.3518,0.3519,0.352,0.3687,0.3693,0.3699,0.3718,0,0,0.3717,0.372,0,0,0,0,0,0,0,0,0.3424,0.3425,0.3452,0.3455,0.346,0.3503,0.3543,0.3574,0.3517,0.3488,0.3519,0.352,0.3642,0.3652,0.3649,0.3726,0.3733,0.3718,0.3722,0.3724,0.3726,0,0,0,0,0,0,0,0.3422,0.3423,0.3445,0.3453,0.3458,0.3491,0.3494,0.3549,0.3555,0.349,0.3494,0.3513,0.3644,0.3643,0.3654,0.3736,0.3718,0.3723,0.3727,0.3729,0.3954,0.3956,0,0,0,0,0,0,0.3424,0.3421,0.3443,0.3448,0.3452,0.3491,0.3494,0.3482,0.3553,0.3565,0.3512,0.3514,0.3632,0.3647,0.366,0.3801,0.3724,0.373,0.3733,0.3952,0.3955,0.3957,0,0,0,0,0,0,0.3423,0.3424,0.3441,0.3444,0.3449,0.349,0.3477,0.3483,0.3533,0.3569,0.3583,0.3563,0.3634,0.3652,0.3755,0.3804,0.3732,0.3738,0.3949,0.3953,0.3956,0.401,0,0,0,0,0,0,0.3421,0.3423,0.3419,0.3443,0.3449,0.3476,0.3478,0.3484,0.3544,0.3548,0.3617,0.363,0.3636,0.3747,0.3761,0.3811,0.3743,0.3946,0.395,0.3955,0.4006,0.4015,0.4024,0,0,0,0,0,0.3419,0.3369,0.3417,0.3421,0.344,0.3478,0.3484,0.3512,0.3546,0.3562,0.3628,0.363,0.3785,0.3754,0.3771,0.3823,0.3944,0.3949,0.3954,0.4001,0.4013,0.4024,0,0,0,0,0,0,0.3325,0.337,0.3422,0.3383,0.3456,0.3486,0.3483,0.3545,0.3606,0.3618,0.3669,0.3687,0.3798,0.3806,0.3771,0.39,0.3862,0.3871,0.3892,0.3904,0.3913,0.3786,0.3748,0,0,0,0,0,0.3318,0.3306,0.3384,0.3362,0.3393,0.3467,0.3491,0.3534,0.3591,0.3618,0.3695,0.3759,0.3823,0.3862,0.3917,0.3991,0.3976,0.4034,0.4043,0.405,0.396,0.4055,0.4063,0.3975,0.3975,0.3975,0,0,0.3277,0.3301,0.3296,0.3348,0.339,0.34,0.3479,0.3521,0.3538,0.3631,0.3694,0.381,0.3855,0.3937,0.3985,0.3955,0.4073,0.4057,0.4063,0.3966,0.4061,0.4069,0.4077,0.3978,0.3978,0.3977,0,0,0.3183,0.3218,0.3193,0.3241,0.3329,0.337,0.3406,0.3505,0.3555,0.3644,0.3729,0.3856,0.3953,0.3999,0.4025,0.4113,0.4131,0.418,0.4112,0.421,0.4217,0.4222,0.4225,0.423,0.4171,0.4171,0.4171,0,0.3143,0.3124,0.3197,0.3191,0.3222,0.336,0.3362,0.3408,0.3545,0.3606,0.3656,0.3869,0.3941,0.4026,0.4057,0.4125,0.4168,0.4072,0.4219,0.4224,0.4228,0.423,0.4235,0.4174,0.4174,0.4174,0.4173,0,0.3047,0.3047,0.3029,0.3068,0.3108,0.3133,0.3228,0.3312,0.3421,0.3502,0.3671,0.3803,0.3923,0.4005,0.4041,0.4148,0.4164,0.4237,0.4182,0.424,0.4239,0.4243,0.4179,0.4178,0.4177,0.4176,0,0,0.2931,0.2963,0.2963,0.2995,0.3062,0.3098,0.3117,0.3216,0.3285,0.3431,0.3531,0.3674,0.3826,0.3862,0.4012,0.408,0.418,0.4167,0.4171,0.4146,0.4355,0.4167,0.4153,0.433,0.4331,0.4332,0.4345,0,0.2862,0.2829,0.2863,0.2863,0.2872,0.2984,0.301,0.3113,0.3237,0.3372,0.352,0.3678,0.3749,0.3894,0.3964,0.4221,0.4192,0.4163,0.4315,0.4314,0.4125,0.4151,0.3895,0.3869,0.4349,0.4349,0.435,0,0.2774,0.2775,0.2752,0.2827,0.2848,0.2871,0.2999,0.3051,0.3211,0.3322,0.3467,0.3623,0.3812,0.3844,0.4109,0.4126,0.4156,0.4259,0.4266,0.4041,0.4131,0.3889,0.3858,0.4356,0.4355,0.4355,0.4354,0,0.2692,0.271,0.2705,0.2718,0.2799,0.2846,0.2923,0.306,0.316,0.3328,0.3455,0.365,0.3841,0.3961,0.4162,0.4189,0.4383,0.4468,0.4239,0.4226,0.3989,0.3952,0.4425,0.4425,0.4425,0.4425,0.4425,0,0.2598,0.2609,0.2689,0.2683,0.2745,0.2826,0.2936,0.3024,0.3199,0.3326,0.3472,0.3609,0.389,0.405,0.4151,0.4226,0.4374,0.4156,0.4209,0.4002,0.3967,0.4372,0.4365,0.4425,0.4425,0.4425,0.4425,0,0.2501,0.254,0.2551,0.2645,0.2701,0.2753,0.2952,0.3034,0.3213,0.3383,0.3454,0.3673,0.3884,0.4041,0.4258,0.4223,0.4309,0.4206,0.3884,0.3891,0.4069,0.4066,0.4009,0.4002,0.3997,0.3992,0.3988,0,0.2452,0.2436,0.2517,0.2555,0.2611,0.2733,0.282,0.3012,0.3108,0.341,0.3475,0.3692,0.3782,0.3987,0.3984,0.4013,0.4115,0.3687,0.3619,0.3964,0.4023,0.4029,0.4034,0.3356,0.3347,0.334,0.3334,0,0.2388,0.2415,0.2439,0.2463,0.2551,0.2656,0.2806,0.2888,0.3119,0.3275,0.3469,0.3569,0.3679,0.3606,0.3554,0.3536,0.3707,0.3529,0.4045,0.3476,0.3343,0.3403,0.343,0.3269,0.3276,0.328,0.3284,0.3286,0.2385,0.2373,0.239,0.2406,0.2487,0.257,0.2661,0.2809,0.2958,0.3128,0.3255,0.33,0.333,0.3143,0.3067,0.3006,0.3229,0.312,0.3146,0.3179,0.3076,0.2938,0.2765,0.2768,0.2771,0.2774,0.2776,0,0.2377,0.2372,0.2352,0.2371,0.2378,0.2496,0.2646,0.2684,0.2824,0.2881,0.297,0.27,0.2606,0.2671,0.2477,0.2425,0.2447,0.2339,0.2389,0.2454,0.2511,0.2378,0.188,0.1877,0.1874,0.1872,0,0,0.2377,0.2355,0.2289,0.2262,0.2316,0.2403,0.2505,0.2549,0.258,0.2464,0.243,0.2478,0.2598,0.2215,0.2146,0.2005,0.2218,0.1921,0.2645,0.2772,0.2826,0.2965,0.2831,0,0,0,0,0]},{"header":{"parameterUnit":"m.s-1","parameterCategory":2,"la1":30.2991,"la2":30.254,"lo1":-89.0895,"lo2":-89.0444,"dy":0.0017,"dx":0.0017,"nx":28,"ny":28,"refTime":"2024-11-26T09:00:00:Z","depth":"2","parameterNumber":3,"parameterNumberName":"V-component_of_CURRENTS"},"data":[0,0,0,0,0,0,0,0,0,0,0,0,0,0,0,0,0,0,0,0,0,0,0,0,0,0,0,0,0,0,0,0,0,0,0,0,0,0,0,0,0,0,0,0,0,0,0,0,0,0,0,0,0,0,0,0,0,0,-0.0191,-0.0192,0,-0.031,-0.0311,-0.0313,-0.0334,-0.0333,-0.0332,-0.0331,-0.0319,-0.0319,-0.032,0,0,0,0,0,0,0,0,0,0,0,0,0,-0.0029,-0.0032,-0.0191,-0.0192,-0.0193,-0.031,-0.0311,-0.0313,-0.0334,-0.0333,-0.0331,-0.033,-0.0318,-0.0319,-0.032,0,0,0,0,0,0,0,0,0,0,0,0,0,-0.012,-0.0032,-0.019,-0.0217,-0.022,-0.0309,-0.0311,-0.0314,-0.0334,-0.0333,-0.0331,-0.033,-0.0318,-0.0319,-0.032,-0.036,0,0,-0.0324,-0.0324,0,0,0,0,0,0,0,0,-0.0115,-0.0126,-0.0212,-0.0215,-0.0219,-0.0304,-0.025,-0.0322,-0.0335,-0.0293,-0.0331,-0.0329,-0.0302,-0.0304,-0.0334,-0.036,-0.0359,-0.0324,-0.0324,-0.0325,-0.0325,0,0,0,0,0,0,0,-0.0108,-0.0121,-0.0239,-0.0213,-0.0218,-0.0239,-0.025,-0.0265,-0.0304,-0.0296,-0.0298,-0.0309,-0.0303,-0.0333,-0.0334,-0.0359,-0.0324,-0.0325,-0.0325,-0.0326,-0.0304,-0.0303,0,0,0,0,0,0,-0.0091,-0.0115,-0.0235,-0.0243,-0.016,-0.0243,-0.0255,-0.028,-0.0306,-0.031,-0.0311,-0.031,-0.0332,-0.0332,-0.0333,-0.0267,-0.0325,-0.0326,-0.0326,-0.0305,-0.0303,-0.0302,0,0,0,0,0,0,-0.0087,-0.0101,-0.023,-0.0179,-0.0197,-0.0247,-0.0275,-0.0283,-0.0282,-0.0319,-0.0319,-0.0297,-0.0331,-0.0332,-0.0293,-0.0271,-0.0326,-0.0327,-0.0306,-0.0304,-0.0303,-0.0208,0,0,0,0,0,0,-0.0082,-0.0099,-0.0108,-0.0179,-0.0199,-0.0259,-0.0277,-0.0286,-0.0293,-0.0292,-0.0307,-0.0307,-0.033,-0.0291,-0.0294,-0.0273,-0.0328,-0.0308,-0.0306,-0.0303,-0.0213,-0.0203,-0.0195,0,0,0,0,0,-0.0076,-0.0104,-0.0108,-0.0122,-0.0211,-0.0258,-0.027,-0.0301,-0.0293,-0.0293,-0.0278,-0.0305,-0.028,-0.029,-0.0294,-0.0273,-0.0309,-0.0306,-0.0304,-0.0217,-0.0205,-0.0195,0,0,0,0,0,0,-0.0046,-0.0111,-0.0116,-0.0163,-0.019,-0.026,-0.0271,-0.0283,-0.028,-0.0261,-0.0283,-0.0281,-0.0241,-0.0269,-0.0281,-0.0261,-0.0302,-0.03,-0.0235,-0.0224,-0.0216,-0.0276,-0.0329,0,0,0,0,0,-0.004,-0.0074,-0.0124,-0.0157,-0.0164,-0.0206,-0.0226,-0.0239,-0.0252,-0.025,-0.0247,-0.0245,-0.0244,-0.0238,-0.0242,-0.023,-0.0261,-0.0222,-0.0213,-0.0205,-0.0257,-0.0218,-0.021,-0.0293,-0.0293,-0.0293,0,0,-0.0033,-0.0079,-0.0093,-0.0151,-0.0175,-0.0196,-0.0213,-0.0229,-0.0247,-0.0246,-0.0233,-0.0206,-0.023,-0.0208,-0.0196,-0.0222,-0.0196,-0.0202,-0.0195,-0.0252,-0.0214,-0.0206,-0.0199,-0.0291,-0.0291,-0.0292,0,0,-0.0048,-0.0072,-0.0098,-0.0118,-0.0147,-0.0174,-0.0164,-0.0192,-0.0198,-0.0195,-0.0177,-0.0136,-0.0152,-0.0149,-0.016,-0.0112,-0.0142,-0.0096,-0.0108,-0.0066,-0.006,-0.0055,-0.0077,-0.0075,-0.0099,-0.0099,-0.0099,0,-0.0035,-0.0079,-0.0108,-0.0135,-0.014,-0.0153,-0.0157,-0.0189,-0.0193,-0.0175,-0.018,-0.0153,-0.0148,-0.013,-0.0111,-0.0096,-0.0091,-0.0139,-0.0055,-0.005,-0.0046,-0.0071,-0.0069,-0.0094,-0.0095,-0.0095,-0.0096,0,-0.0057,-0.0088,-0.01,-0.0135,-0.0142,-0.0147,-0.0173,-0.0153,-0.0149,-0.0167,-0.013,-0.0127,-0.0107,-0.009,-0.0099,-0.0053,-0.0064,-0.0034,-0.008,-0.0032,-0.0061,-0.0061,-0.0087,-0.0089,-0.009,-0.0092,0,0,-0.0043,-0.0103,-0.0104,-0.0102,-0.013,-0.013,-0.0138,-0.0137,-0.0095,-0.0132,-0.009,-0.0113,-0.0079,-0.0092,-0.0063,-0.0055,-0.0005,-0.0034,-0.0034,-0.006,0.0055,-0.0031,-0.004,0.0072,0.0073,0.0073,0.0025,0,-0.0042,-0.008,-0.0108,-0.0108,-0.0112,-0.0105,-0.0098,-0.009,-0.0076,-0.003,-0.007,-0.0021,-0.0094,-0.0026,-0.0041,0.0055,-0.0002,0.0,0.0008,0.0005,-0.0076,-0.0042,-0.0021,-0.0068,0.0025,0.0025,0.0025,0,-0.0043,-0.0071,-0.0073,-0.0064,-0.0054,-0.0044,0.0035,0.0037,0.007,0.0088,0.0087,0.0088,0.0108,0.0042,0.0057,0.0084,0.0023,0.002,0.0021,-0.011,-0.0081,-0.0103,-0.0072,0.0024,0.0024,0.0024,0.0024,0,0.0002,-0.0034,-0.0024,-0.0026,-0.0024,0.0015,0.0045,0.0095,0.0155,0.0191,0.0272,0.0233,0.0288,0.022,0.0144,0.0159,0.0126,0.0172,-0.003,-0.0037,-0.0058,-0.0069,0.006,0.006,0.0061,0.0061,0.0061,0,0.0015,0.0021,0.0008,0.0013,0.0084,0.0078,0.0191,0.0216,0.0307,0.0423,0.0355,0.0432,0.0343,0.0303,0.0193,0.0073,0.0154,-0.0068,-0.0054,-0.0026,-0.0033,0.0012,0.0007,0.0059,0.0059,0.006,0.006,0,0.0054,0.0032,0.0049,0.0072,0.0099,0.0163,0.0289,0.0384,0.0455,0.0616,0.0644,0.0639,0.0613,0.0427,0.0342,0.017,0.0054,-0.007,-0.0084,-0.0074,-0.0152,-0.0152,-0.0202,-0.0206,-0.0209,-0.0211,-0.0213,0,0.0066,0.0072,0.0113,0.0161,0.0178,0.0275,0.0368,0.0449,0.057,0.0749,0.0843,0.0826,0.0821,0.0588,0.029,0.0018,-0.0033,-0.0201,-0.0203,-0.0199,-0.0178,-0.0173,-0.0169,-0.0182,-0.0184,-0.0185,-0.0186,0,0.011,0.013,0.0163,0.0243,0.0335,0.045,0.0588,0.0713,0.0855,0.1021,0.1207,0.122,0.0933,0.0667,0.0188,0.0005,-0.0126,-0.0238,-0.0173,-0.0137,-0.0188,-0.0165,-0.016,-0.0198,-0.0197,-0.0196,-0.0195,-0.0195,0.0177,0.0214,0.0269,0.0352,0.046,0.063,0.0789,0.0973,0.1211,0.146,0.1409,0.1429,0.1033,0.0466,0.0118,-0.0245,-0.0223,-0.0341,-0.0332,-0.0323,-0.033,-0.0384,-0.0437,-0.0437,-0.0437,-0.0437,-0.0437,0,0.0246,0.0295,0.0377,0.0502,0.0646,0.0685,0.0948,0.1146,0.1477,0.1576,0.1696,0.1324,0.0948,0.0534,-0.0018,-0.0366,-0.035,-0.0453,-0.0351,-0.034,-0.033,-0.0332,-0.0442,-0.0442,-0.0443,-0.0443,0,0,0.0287,0.0379,0.0405,0.0638,0.0754,0.1001,0.1179,0.1494,0.1642,0.1778,0.1742,0.1543,0.1029,0.0626,0.016,-0.0124,-0.0139,-0.0178,-0.0147,0.0037,0.0053,-0.0253,-0.0245,0,0,0,0,0]}],[{"header":{"parameterUnit":"m.s-1","parameterCategory":2,"la1":30.2991,"la2":30.254,"lo1":-89.0895,"lo2":-89.0444,"dy":0.0017,"dx":0.0017,"nx":28,"ny":28,"refTime":"2024-11-26T09:00:00:Z","depth":"4","parameterNumber":2,"parameterNumberName":"U-component_of_CURRENTS"},"data":[0,0,0,0,0,0,0,0,0,0,0,0,0,0,0,0,0,0,0,0,0,0,0,0,0,0,0,0,0,0,0,0,0,0,0,0,0,0,0,0,0,0,0,0,0,0,0,0,0,0,0,0,0,0,0,0,0,0,0.0616,0.0617,0,0.0611,0.0611,0.0611,0.0622,0.0622,0.0623,0.0624,0.0676,0.0677,0.0678,0,0,0,0,0,0,0,0,0,0,0,0,0,0.0622,0.0621,0.0616,0.0617,0.0617,0.0611,0.0611,0.061,0.0621,0.0622,0.0623,0.0624,0.0676,0.0677,0.0678,0,0,0,0,0,0,0,0,0,0,0,0,0,0.0615,0.0621,0.0616,0.0624,0.0625,0.0611,0.0611,0.061,0.0621,0.0622,0.0623,0.0624,0.0676,0.0677,0.0678,0.0666,0,0,0.0682,0.0682,0,0,0,0,0,0,0,0,0.0616,0.0615,0.0623,0.0624,0.0625,0.0621,0.0632,0.0633,0.0621,0.0619,0.0624,0.0625,0.0665,0.0667,0.0658,0.0668,0.067,0.0682,0.0683,0.0683,0.0683,0,0,0,0,0,0,0,0.0616,0.0615,0.0611,0.0623,0.0624,0.0623,0.0623,0.0632,0.0635,0.0619,0.0621,0.0625,0.0665,0.0657,0.066,0.0671,0.0682,0.0683,0.0684,0.0684,0.0747,0.0748,0,0,0,0,0,0,0.0623,0.0615,0.0611,0.0611,0.0626,0.0623,0.0622,0.0618,0.0634,0.0637,0.0625,0.0626,0.0654,0.0658,0.0662,0.0755,0.0683,0.0684,0.0685,0.0746,0.0748,0.0749,0,0,0,0,0,0,0.0623,0.0622,0.0612,0.0616,0.0615,0.0622,0.0617,0.0618,0.0648,0.0638,0.0642,0.0659,0.0655,0.066,0.0695,0.0754,0.0685,0.0686,0.0745,0.0747,0.0748,0.0874,0,0,0,0,0,0,0.0623,0.0622,0.0633,0.0616,0.0616,0.0628,0.0617,0.0617,0.0648,0.0651,0.0668,0.0671,0.0656,0.0693,0.0696,0.0754,0.0687,0.0744,0.0746,0.0748,0.0869,0.088,0.0889,0,0,0,0,0,0.0623,0.0625,0.0633,0.0634,0.0626,0.0629,0.0629,0.0634,0.065,0.0665,0.0676,0.0673,0.0706,0.0695,0.0698,0.0758,0.0743,0.0745,0.0747,0.0864,0.0878,0.0889,0,0,0,0,0,0,0.0617,0.0626,0.0635,0.0636,0.0648,0.0633,0.0649,0.0659,0.0677,0.0691,0.0685,0.0689,0.0723,0.0722,0.0709,0.0776,0.0725,0.0727,0.0812,0.0825,0.0835,0.0819,0.0688,0,0,0,0,0,0.0625,0.0643,0.0644,0.0651,0.066,0.0666,0.0675,0.0682,0.0691,0.0701,0.0714,0.0725,0.0727,0.0764,0.0744,0.0807,0.081,0.0843,0.0853,0.0862,0.0849,0.0891,0.0904,0.0756,0.0756,0.0756,0,0,0.0623,0.0634,0.0642,0.0655,0.0664,0.0678,0.0674,0.0698,0.0726,0.0705,0.0754,0.0745,0.0737,0.0779,0.0801,0.0803,0.0919,0.0865,0.0874,0.0854,0.0895,0.0909,0.0922,0.0757,0.0757,0.0757,0,0,0.0631,0.0644,0.0666,0.0682,0.0712,0.0709,0.073,0.0742,0.0771,0.0805,0.0791,0.0819,0.0842,0.0852,0.0859,0.0917,0.0939,0.0933,0.1021,0.1064,0.1077,0.1088,0.1172,0.119,0.098,0.098,0.098,0,0.0629,0.0654,0.0672,0.0698,0.0719,0.0731,0.0758,0.0779,0.0806,0.0838,0.0835,0.0868,0.0866,0.0928,0.0948,0.0943,0.0987,0.0985,0.108,0.1091,0.11,0.1183,0.1201,0.0986,0.0986,0.0985,0.0984,0,0.065,0.0681,0.0696,0.0735,0.076,0.0783,0.0815,0.0854,0.0886,0.0904,0.0966,0.0965,0.0998,0.1013,0.1002,0.1087,0.1106,0.1061,0.1057,0.1124,0.1207,0.1223,0.0995,0.0993,0.0991,0.099,0,0,0.0603,0.0692,0.0699,0.0736,0.0786,0.0801,0.0865,0.0914,0.097,0.1005,0.1079,0.1094,0.1116,0.1121,0.1139,0.119,0.1312,0.1181,0.118,0.128,0.1464,0.1349,0.1356,0.1308,0.131,0.1311,0.1518,0,0.0612,0.0675,0.072,0.0777,0.0808,0.0858,0.091,0.0967,0.1024,0.1094,0.1132,0.1185,0.116,0.1211,0.1255,0.1246,0.1352,0.1262,0.1368,0.1372,0.1273,0.1368,0.1318,0.153,0.1534,0.1537,0.1539,0,0.0611,0.0659,0.0727,0.0816,0.0836,0.0873,0.0974,0.103,0.1129,0.1187,0.1267,0.129,0.1362,0.1336,0.1422,0.1377,0.1449,0.1462,0.147,0.1316,0.1284,0.1431,0.1568,0.1565,0.1563,0.1561,0.156,0,0.0569,0.0658,0.0719,0.0747,0.0844,0.0899,0.0953,0.1057,0.1127,0.1268,0.1336,0.1407,0.1469,0.1513,0.1539,0.1509,0.1633,0.1591,0.1586,0.1582,0.1568,0.1552,0.1718,0.1718,0.1717,0.1717,0.1716,0,0.0552,0.0595,0.071,0.0738,0.081,0.0895,0.0991,0.1071,0.1198,0.1282,0.1393,0.1474,0.1517,0.1584,0.1599,0.1625,0.1699,0.1611,0.1618,0.1624,0.1612,0.1584,0.1566,0.1724,0.1723,0.1721,0.172,0,0.0497,0.0575,0.064,0.0755,0.0796,0.0852,0.0994,0.1055,0.1208,0.1332,0.1388,0.1538,0.1623,0.1674,0.1756,0.1706,0.1732,0.1763,0.1814,0.1818,0.1657,0.1643,0.1761,0.1758,0.1756,0.1754,0.1753,0,0.0478,0.0509,0.063,0.0673,0.0731,0.0832,0.089,0.1042,0.1117,0.1353,0.1393,0.1564,0.1648,0.1696,0.1732,0.1793,0.1786,0.1817,0.1684,0.1662,0.1658,0.1647,0.1636,0.1749,0.1749,0.1748,0.1748,0,0.0421,0.047,0.052,0.0609,0.0681,0.0759,0.0865,0.0917,0.1103,0.1244,0.1401,0.1493,0.1613,0.165,0.1734,0.1757,0.1757,0.1794,0.1798,0.1673,0.165,0.1646,0.1637,0.174,0.1741,0.1742,0.1743,0,0.0368,0.0382,0.0453,0.0531,0.0612,0.0675,0.0747,0.086,0.0964,0.1225,0.1267,0.1464,0.16,0.1642,0.1686,0.1706,0.168,0.1617,0.1629,0.1638,0.1488,0.1433,0.1482,0,0,0,0,0,0.0311,0.032,0.0371,0.0453,0.053,0.0583,0.0719,0.0797,0.0978,0.106,0.1175,0.1293,0.142,0.1505,0.1502,0.16,0.1653,0.1586,0.1577,0.1699,0.1708,0.1533,0,0,0,0,0,0,0.0269,0.03,0.0334,0.0376,0.0414,0.0491,0.0575,0.0698,0.0764,0.0962,0.1038,0.1193,0.132,0.1401,0.1467,0.149,0.1456,0.1697,0.1693,0.1695,0.1702,0.1709,0.1533,0,0,0,0,0]},{"header":{"parameterUnit":"m.s-1","parameterCategory":2,"la1":30.2991,"la2":30.254,"lo1":-89.0895,"lo2":-89.0444,"dy":0.0017,"dx":0.0017,"nx":28,"ny":28,"refTime":"2024-11-26T09:00:00:Z","depth":"4","parameterNumber":3,"parameterNumberName":"V-component_of_CURRENTS"},"data":[0,0,0,0,0,0,0,0,0,0,0,0,0,0,0,0,0,0,0,0,0,0,0,0,0,0,0,0,0,0,0,0,0,0,0,0,0,0,0,0,0,0,0,0,0,0,0,0,0,0,0,0,0,0,0,0,0,0,0.0056,0.0055,0,-0.0025,-0.0026,-0.0027,-0.0075,-0.0075,-0.0075,-0.0076,-0.0248,-0.0252,-0.0257,0,0,0,0,0,0,0,0,0,0,0,0,0,0.0084,0.0084,0.0056,0.0055,0.0054,-0.0025,-0.0026,-0.0027,-0.0075,-0.0075,-0.0075,-0.0076,-0.0247,-0.0252,-0.0257,0,0,0,0,0,0,0,0,0,0,0,0,0,0.0044,0.0084,0.0056,0.0021,0.0018,-0.0025,-0.0026,-0.0028,-0.0075,-0.0075,-0.0075,-0.0076,-0.0245,-0.0251,-0.0258,-0.0295,0,0,-0.0278,-0.0281,0,0,0,0,0,0,0,0,0.0046,0.0043,0.0027,0.0024,0.0019,-0.004,-0.008,-0.0121,-0.0075,-0.0041,-0.0076,-0.0076,-0.0186,-0.0198,-0.0212,-0.0303,-0.031,-0.0279,-0.0283,-0.0286,-0.0288,0,0,0,0,0,0,0,0.0049,0.0046,0.0023,0.0027,0.0022,-0.002,-0.0025,-0.0088,-0.0113,-0.0044,-0.0047,-0.0055,-0.0189,-0.0205,-0.0217,-0.0313,-0.0279,-0.0285,-0.0289,-0.0291,-0.0472,-0.0473,0,0,0,0,0,0,0.0066,0.0049,0.0026,0.0021,0.0033,-0.002,-0.0026,-0.0021,-0.0111,-0.0124,-0.0055,-0.0057,-0.0194,-0.0209,-0.0223,-0.0282,-0.0286,-0.0292,-0.0296,-0.0471,-0.0472,-0.0473,0,0,0,0,0,0,0.0067,0.0065,0.0029,0.0033,0.0025,-0.0019,-0.0014,-0.0022,-0.0046,-0.0118,-0.0133,-0.007,-0.0195,-0.0214,-0.0293,-0.0289,-0.0295,-0.0301,-0.047,-0.0471,-0.0472,-0.0395,0,0,0,0,0,0,0.0068,0.0066,0.0077,0.0034,0.0026,0.0012,-0.0014,-0.0024,-0.0049,-0.0053,-0.0136,-0.0152,-0.0196,-0.0283,-0.03,-0.0299,-0.0306,-0.0469,-0.0471,-0.0472,-0.0396,-0.0393,-0.0391,0,0,0,0,0,0.007,0.009,0.0079,0.0076,0.0043,0.0012,0.0004,-0.003,-0.005,-0.0053,-0.0123,-0.015,-0.0303,-0.0289,-0.0309,-0.0309,-0.0468,-0.047,-0.0472,-0.0398,-0.0394,-0.0391,0,0,0,0,0,0,0.0111,0.0086,0.0072,0.0086,0.0053,0.0004,-0.0,-0.0031,-0.0087,-0.0099,-0.017,-0.0191,-0.0247,-0.0301,-0.0284,-0.0367,-0.0387,-0.0392,-0.0323,-0.0321,-0.0318,-0.027,-0.0312,0,0,0,0,0,0.0126,0.0133,0.0095,0.0104,0.0092,0.0042,0.0025,-0.0003,-0.0058,-0.0081,-0.0137,-0.0208,-0.0268,-0.0313,-0.0364,-0.0428,-0.0462,-0.044,-0.0437,-0.0434,-0.041,-0.0501,-0.0504,-0.0479,-0.0479,-0.0479,0,0,0.014,0.013,0.0132,0.0112,0.0085,0.008,0.0032,0.0007,-0.0002,-0.0095,-0.0126,-0.0193,-0.028,-0.0334,-0.0365,-0.0384,-0.0453,-0.0436,-0.0432,-0.041,-0.0503,-0.0505,-0.0507,-0.048,-0.048,-0.0479,0,0,0.017,0.0167,0.0177,0.016,0.0125,0.0102,0.0096,0.0045,0.0019,-0.003,-0.0093,-0.0162,-0.0253,-0.0311,-0.0356,-0.0375,-0.0423,-0.0398,-0.036,-0.0449,-0.0451,-0.0453,-0.0464,-0.0468,-0.0411,-0.041,-0.041,0,0.0192,0.0202,0.0173,0.0178,0.0172,0.0118,0.0123,0.0093,0.0023,-0.0005,-0.0027,-0.0166,-0.0234,-0.0314,-0.0315,-0.0364,-0.0403,-0.0362,-0.0442,-0.0446,-0.045,-0.0461,-0.0466,-0.0407,-0.0407,-0.0408,-0.0408,0,0.0219,0.0231,0.0236,0.0234,0.0225,0.0218,0.018,0.0159,0.0122,0.008,0.0004,-0.0097,-0.0182,-0.0218,-0.0272,-0.0339,-0.035,-0.0414,-0.0442,-0.0447,-0.0459,-0.0466,-0.0402,-0.0403,-0.0404,-0.0405,0,0,0.0258,0.0258,0.0261,0.027,0.0253,0.0247,0.0241,0.021,0.0195,0.0125,0.0087,-0.0018,-0.008,-0.0134,-0.0223,-0.0301,-0.0351,-0.0364,-0.037,-0.0354,-0.0498,-0.0461,-0.0465,-0.0445,-0.0447,-0.0448,-0.0482,0,0.0287,0.0318,0.0308,0.0337,0.0348,0.0314,0.0316,0.0279,0.0233,0.0188,0.0077,0.0012,-0.0049,-0.0103,-0.0188,-0.0324,-0.0372,-0.0331,-0.0512,-0.0515,-0.0468,-0.0474,-0.0454,-0.0487,-0.0489,-0.049,-0.0491,0,0.0313,0.0334,0.0372,0.0386,0.0388,0.0406,0.0395,0.0381,0.0308,0.0265,0.0181,0.0092,-0.0021,-0.008,-0.0272,-0.0251,-0.0345,-0.0438,-0.0444,-0.0438,-0.0493,-0.0495,-0.0504,-0.0503,-0.0502,-0.0501,-0.0501,0,0.0347,0.0377,0.0415,0.0421,0.0432,0.0446,0.045,0.0407,0.0392,0.0311,0.028,0.0137,0.0052,-0.0099,-0.0277,-0.0288,-0.048,-0.0531,-0.0564,-0.0561,-0.0616,-0.0614,-0.0637,-0.0637,-0.0636,-0.0636,-0.0636,0,0.0379,0.0406,0.0442,0.0461,0.051,0.0495,0.0524,0.0499,0.0458,0.0436,0.0321,0.0259,0.0033,-0.011,-0.0256,-0.0421,-0.0467,-0.0533,-0.0577,-0.0578,-0.0572,-0.0619,-0.0616,-0.0638,-0.0637,-0.0637,-0.0637,0,0.04,0.042,0.0467,0.0506,0.0528,0.0561,0.0595,0.06,0.0557,0.0522,0.0498,0.0336,0.0152,-0.0045,-0.0296,-0.0387,-0.0555,-0.0596,-0.0521,-0.0565,-0.0564,-0.0557,-0.0617,-0.0616,-0.0616,-0.0615,-0.0614,0,0.0407,0.0437,0.0511,0.0552,0.0579,0.0633,0.0666,0.0656,0.0653,0.0562,0.0536,0.0369,0.0245,-0.005,-0.0264,-0.0498,-0.0541,-0.0587,-0.0609,-0.0529,-0.0567,-0.0562,-0.0556,-0.0613,-0.0613,-0.0613,-0.0613,0,0.0421,0.0454,0.0497,0.0588,0.0649,0.0712,0.0751,0.0758,0.0722,0.0689,0.0566,0.0405,0.0209,-0.0034,-0.0213,-0.0394,-0.0544,-0.058,-0.0583,-0.0605,-0.0526,-0.0563,-0.0558,-0.061,-0.0611,-0.0611,-0.0611,0,0.043,0.0468,0.0532,0.0611,0.0688,0.0749,0.078,0.0771,0.0765,0.0664,0.0621,0.0405,0.027,0.002,-0.0158,-0.0318,-0.0358,-0.0396,-0.0409,-0.0414,-0.0358,-0.0228,-0.0245,0,0,0,0,0,0.0434,0.0475,0.0546,0.0629,0.0706,0.0755,0.0807,0.0821,0.0794,0.0723,0.0675,0.0494,0.0222,0.0086,-0.0066,-0.0146,-0.0384,-0.0325,-0.0433,-0.0597,-0.06,-0.0569,0,0,0,0,0,0,0.0434,0.0496,0.0537,0.0623,0.0682,0.0766,0.0805,0.08,0.0754,0.0701,0.0551,0.0476,0.0202,0.0303,-0.0068,-0.0119,-0.02,-0.0459,-0.0461,-0.0596,-0.0598,-0.0601,-0.0569,0,0,0,0,0]}]]